Flag for Germany Weather past 2 weeks in Kerpen, North Rhine-Westphalia, Germany

Now
45 °F

Partly sunny.


Feels Like: 37 °F
Forecast: 38 / 45 °F
Wind: 18 mph from Southwest

Location: Noervenich

Current Time: Dec 20, 2014 at 1:26:04 PM

Latest Report: Dec 20, 2014 at 12:20 PM


Visibility: N/A

Pressure: 30.12 "Hg

Humidity: 71%

Dew point: 36 °F

Location of KerpenLocation

Historic Weather in Kerpen — Graph

°F

Kerpen temperature yesterday

Maximum temperature yesterday: 54 °F (at 12:20 AM)
Minimum temperature yesterday: 43 °F (at 7:20 PM)
Average temperature yesterday: 50 °F

Past Weeks' High & Low Weather Summary

 TemperatureHumidityPressure
High55 °F (Dec 18, 3:20 PM)100% (Dec 6, 9:20 PM)30.39 "Hg (Dec 6, 9:20 PM)
Low32 °F (Dec 14, 4:20 AM)61% (Dec 7, 1:20 PM)29.45 "Hg (Dec 12, 2:04 PM)
Average42 °F85%29.96 "Hg
* Reported Dec 5 12:20 PM — Dec 20 12:20 PM, Kerpen, Weather by CustomWeather, © 2014

Note: Actual official high and low records may vary slightly from our data, if they occured in-between our weather recording intervals... More about our weather records

Advertising

Kerpen weather history for previous 24 hours

 ConditionsComfort  
Time TempWeatherWind HumidityBarometerVisibility
12:20 PM
Dec 20
45 °FPartly sunny.18 mph71%30.12 "HgN/A
11:20 AM43 °FScattered clouds.17 mph81%30.15 "HgN/A
10:20 AM43 °FBroken clouds.15 mph81%30.15 "HgN/A
9:20 AM41 °FPartly sunny.12 mph81%30.15 "HgN/A
8:20 AM41 °FPassing clouds.14 mph81%30.15 "HgN/A
7:20 AM41 °FPassing clouds.10 mph81%30.18 "HgN/A
6:20 AM39 °FChilly.12 mph87%30.18 "HgN/A
5:20 AM39 °FChilly.12 mph87%30.18 "HgN/A
4:20 AM41 °FQuite cool.12 mph81%30.15 "HgN/A
3:20 AM41 °FQuite cool.9 mph81%30.18 "HgN/A
2:20 AM41 °FQuite cool.9 mph81%30.15 "HgN/A
1:20 AM41 °FPassing clouds.12 mph81%30.15 "HgN/A
12:20 AM43 °FPassing clouds.13 mph76%30.12 "HgN/A
11:20 PM
Dec 19
43 °FPassing clouds.9 mph76%30.12 "HgN/A
10:20 PM43 °FQuite cool.12 mph81%30.12 "HgN/A
9:20 PM43 °FQuite cool.10 mph81%30.09 "HgN/A
8:20 PM43 °FPassing clouds.9 mph81%30.07 "HgN/A
7:20 PM43 °FPassing clouds.8 mph81%30.04 "HgN/A
6:20 PM45 °FPassing clouds.10 mph81%30.01 "HgN/A
5:20 PM46 °FPassing clouds.7 mph76%29.98 "HgN/A
4:20 PM46 °FPartly sunny.10 mph82%29.95 "HgN/A
3:20 PM48 °FLight rain. Broken clouds.14 mph87%29.92 "HgN/A
2:20 PM52 °FRain. Fog.15 mph94%29.89 "Hg3 mi
1:20 PM54 °FLight rain. Broken clouds.14 mph82%29.83 "HgN/A
Weather by CustomWeather, © 2014

See weather overviewHow to use our weather pages